Time,TemperatureF,DewpointF,PressureIn,WindDirection,WindDirectionDegrees,WindSpeedMPH,WindSpeedGustMPH,Humidity,HourlyPrecipIn,Conditions,Clouds,dailyrainin,SolarRadiationWatts/m^2,SoftwareType,DateUTC
2013-05-10 00:01:00,64.9,63.1,29.93,SW,214,0.0,0.0,94,0.00,,,0.00,0.00,VWS V14.01,2013-05-10 05:01:00,
2013-05-10 00:06:00,64.9,63.1,29.93,SW,214,0.0,0.0,94,0.00,,,0.00,0.00,VWS V14.01,2013-05-10 05:06:00,
2013-05-10 00:11:00,64.9,63.1,29.93,SW,214,0.0,0.0,94,0.00,,,0.00,0.00,VWS V14.01,2013-05-10 05:11:00,
2013-05-10 00:16:00,64.9,63.4,29.92,SW,214,0.0,0.0,95,0.00,,,0.00,0.00,VWS V14.01,2013-05-10 05:16:00,
2013-05-10 00:21:00,64.8,63.3,29.92,SW,214,0.0,0.0,95,0.00,,,0.00,0.00,VWS V14.01,2013-05-10 05:21:00,
2013-05-10 00:26:00,64.8,63.3,29.92,SW,214,0.0,0.0,95,0.00,,,0.00,0.00,VWS V14.01,2013-05-10 05:26:00,
2013-05-10 00:31:00,64.6,63.1,29.92,SW,214,0.0,0.0,95,0.00,,,0.00,0.00,VWS V14.01,2013-05-10 05:31:00,
2013-05-10 00:36:00,64.6,63.1,29.92,SW,214,0.0,0.0,95,0.00,,,0.00,0.00,VWS V14.01,2013-05-10 05:36:00,
2013-05-10 00:41:00,64.6,63.1,29.92,SW,214,0.0,0.0,95,0.00,,,0.00,0.00,VWS V14.01,2013-05-10 05:41:00,
2013-05-10 00:46:00,64.6,63.1,29.92,SW,214,0.0,0.0,95,0.00,,,0.00,0.00,VWS V14.01,2013-05-10 05:46:00,
2013-05-10 00:51:00,64.6,63.1,29.92,SW,214,0.0,0.0,95,0.01,,,0.01,0.00,VWS V14.01,2013-05-10 05:51:00,
2013-05-10 00:56:00,64.6,63.1,29.92,SW,214,0.0,0.0,95,0.01,,,0.01,0.00,VWS V14.01,2013-05-10 05:56:00,
2013-05-10 01:01:00,64.6,63.1,29.92,SW,214,0.0,0.0,95,0.01,,,0.01,0.00,VWS V14.01,2013-05-10 06:01:00,
2013-05-10 01:06:00,64.6,63.1,29.92,SW,214,0.0,0.0,95,0.01,,,0.01,0.00,VWS V14.01,2013-05-10 06:06:00,
2013-05-10 01:11:00,64.6,63.1,29.92,SW,214,0.0,0.0,95,0.01,,,0.01,0.00,VWS V14.01,2013-05-10 06:11:00,
2013-05-10 01:16:00,64.6,63.1,29.92,SW,214,0.0,0.0,95,0.01,,,0.01,0.00,VWS V14.01,2013-05-10 06:16:00,
2013-05-10 01:21:00,64.6,63.1,29.92,SW,214,0.0,0.0,95,0.01,,,0.01,0.00,VWS V14.01,2013-05-10 06:21:00,
2013-05-10 01:26:00,64.5,63.0,29.92,SW,214,0.0,0.0,95,0.01,,,0.01,0.00,VWS V14.01,2013-05-10 06:26:00,
2013-05-10 01:31:00,64.5,63.0,29.92,SW,214,0.0,0.0,95,0.01,,,0.01,0.00,VWS V14.01,2013-05-10 06:31:00,
2013-05-10 01:36:00,64.5,63.0,29.92,SW,214,0.0,0.0,95,0.01,,,0.01,0.00,VWS V14.01,2013-05-10 06:36:00,
2013-05-10 01:41:00,64.3,62.8,29.92,SW,215,0.0,0.0,95,0.01,,,0.01,0.00,VWS V14.01,2013-05-10 06:41:00,
2013-05-10 01:46:00,64.3,62.8,29.92,SW,228,0.0,0.0,95,0.01,,,0.01,0.00,VWS V14.01,2013-05-10 06:46:00,
2013-05-10 01:51:00,64.3,62.8,29.92,SW,228,0.0,0.0,95,0.01,,,0.01,0.00,VWS V14.01,2013-05-10 06:51:00,
2013-05-10 01:56:00,64.1,62.6,29.92,SW,228,0.0,0.0,95,0.00,,,0.01,0.00,VWS V14.01,2013-05-10 06:56:00,
2013-05-10 02:01:00,64.1,62.6,29.92,SW,228,0.0,0.0,95,0.00,,,0.01,0.00,VWS V14.01,2013-05-10 07:01:00,
2013-05-10 02:06:00,64.1,62.6,29.92,SW,228,0.0,0.0,95,0.00,,,0.01,0.00,VWS V14.01,2013-05-10 07:06:00,
2013-05-10 02:11:00,64.1,62.6,29.92,SW,228,0.0,0.0,95,0.00,,,0.01,0.00,VWS V14.01,2013-05-10 07:11:00,
2013-05-10 02:16:00,64.0,62.5,29.92,SW,228,0.0,0.0,95,0.00,,,0.01,0.00,VWS V14.01,2013-05-10 07:16:00,
2013-05-10 02:21:00,64.0,62.5,29.92,SW,228,0.0,0.0,95,0.00,,,0.01,0.00,VWS V14.01,2013-05-10 07:21:00,
2013-05-10 02:26:00,64.0,62.5,29.92,SW,228,0.0,0.0,95,0.00,,,0.01,0.00,VWS V14.01,2013-05-10 07:26:00,
2013-05-10 02:31:00,64.0,62.5,29.92,SW,228,0.0,0.0,95,0.00,,,0.01,0.00,VWS V14.01,2013-05-10 07:31:00,
2013-05-10 02:36:00,63.8,62.3,29.92,SW,228,0.0,0.0,95,0.00,,,0.01,0.00,VWS V14.01,2013-05-10 07:36:00,
2013-05-10 02:41:00,63.8,62.3,29.92,SW,228,0.0,0.0,95,0.00,,,0.01,0.00,VWS V14.01,2013-05-10 07:41:00,
2013-05-10 02:46:00,63.7,62.2,29.92,SW,228,0.0,0.0,95,0.00,,,0.01,0.00,VWS V14.01,2013-05-10 07:46:00,
2013-05-10 02:51:00,63.7,62.2,29.92,SW,228,0.0,0.0,95,0.00,,,0.01,0.00,VWS V14.01,2013-05-10 07:51:00,
2013-05-10 02:56:00,63.7,62.2,29.92,SW,228,0.0,0.0,95,0.00,,,0.01,0.00,VWS V14.01,2013-05-10 07:56:00,
2013-05-10 03:01:00,63.5,62.0,29.92,SW,228,0.0,0.0,95,0.00,,,0.01,0.00,VWS V14.01,2013-05-10 08:01:00,
2013-05-10 03:06:00,63.5,62.0,29.92,SW,228,0.0,0.0,95,0.00,,,0.01,0.00,VWS V14.01,2013-05-10 08:06:00,
2013-05-10 03:11:00,63.3,61.8,29.92,SW,228,0.0,0.0,95,0.00,,,0.01,0.00,VWS V14.01,2013-05-10 08:11:00,
2013-05-10 03:16:00,63.3,61.8,29.92,SW,228,0.0,0.0,95,0.00,,,0.01,0.00,VWS V14.01,2013-05-10 08:16:00,
2013-05-10 03:21:00,63.2,61.8,29.92,SW,228,0.0,0.0,95,0.00,,,0.01,0.00,VWS V14.01,2013-05-10 08:21:00,
2013-05-10 03:26:00,63.2,61.8,29.92,SW,228,0.0,0.0,95,0.00,,,0.01,0.00,VWS V14.01,2013-05-10 08:26:00,
2013-05-10 03:31:00,63.0,61.5,29.91,SW,228,0.0,0.0,95,0.00,,,0.01,0.00,VWS V14.01,2013-05-10 08:31:00,
2013-05-10 03:36:00,63.0,61.5,29.91,SW,228,0.0,0.0,95,0.00,,,0.01,0.00,VWS V14.01,2013-05-10 08:36:00,
2013-05-10 03:41:00,62.8,61.3,29.91,SW,228,0.0,0.0,95,0.00,,,0.01,0.00,VWS V14.01,2013-05-10 08:41:00,
2013-05-10 03:46:00,62.8,61.3,29.92,SW,228,0.0,0.0,95,0.00,,,0.01,0.00,VWS V14.01,2013-05-10 08:46:00,
2013-05-10 03:51:00,62.7,61.2,29.92,SW,228,0.0,0.0,95,0.00,,,0.01,0.00,VWS V14.01,2013-05-10 08:51:00,
2013-05-10 03:56:00,62.5,61.0,29.92,SW,228,0.0,0.0,95,0.00,,,0.01,0.00,VWS V14.01,2013-05-10 08:56:00,
2013-05-10 04:01:00,62.4,61.0,29.92,SW,228,0.0,0.0,95,0.00,,,0.01,0.00,VWS V14.01,2013-05-10 09:01:00,
2013-05-10 04:06:00,62.2,60.8,29.92,SW,228,0.0,0.0,95,0.00,,,0.01,0.00,VWS V14.01,2013-05-10 09:06:00,
2013-05-10 04:11:00,62.0,60.6,29.92,SW,228,0.0,0.0,95,0.00,,,0.01,0.00,VWS V14.01,2013-05-10 09:11:00,
2013-05-10 04:16:00,61.9,60.5,29.91,SW,228,0.0,0.0,95,0.00,,,0.01,0.00,VWS V14.01,2013-05-10 09:16:00,
2013-05-10 04:21:00,61.9,60.5,29.91,SW,228,0.0,0.0,95,0.00,,,0.01,0.00,VWS V14.01,2013-05-10 09:21:00,
2013-05-10 04:26:00,61.7,60.3,29.91,SW,228,0.0,0.0,95,0.00,,,0.01,0.00,VWS V14.01,2013-05-10 09:26:00,
2013-05-10 04:31:00,61.6,60.2,29.92,SW,228,0.0,0.0,95,0.00,,,0.01,0.00,VWS V14.01,2013-05-10 09:31:00,
2013-05-10 04:36:00,61.4,60.2,29.92,SW,228,0.0,0.0,96,0.00,,,0.01,0.00,VWS V14.01,2013-05-10 09:36:00,
2013-05-10 04:41:00,61.4,60.0,29.92,SW,228,0.0,0.0,95,0.00,,,0.01,0.00,VWS V14.01,2013-05-10 09:41:00,
2013-05-10 04:46:00,61.2,60.0,29.92,SW,228,0.0,0.0,96,0.00,,,0.01,0.00,VWS V14.01,2013-05-10 09:46:00,
2013-05-10 04:51:00,61.2,60.0,29.92,SW,228,0.0,0.0,96,0.00,,,0.01,0.00,VWS V14.01,2013-05-10 09:51:00,
2013-05-10 04:56:00,61.1,60.0,29.92,SW,228,0.0,0.0,96,0.00,,,0.01,0.00,VWS V14.01,2013-05-10 09:56:00,
2013-05-10 05:01:00,60.9,59.8,29.92,SW,228,0.0,0.0,96,0.00,,,0.01,0.00,VWS V14.01,2013-05-10 10:01:00,
2013-05-10 05:06:00,60.8,59.7,29.92,SW,228,0.0,0.0,96,0.00,,,0.01,0.00,VWS V14.01,2013-05-10 10:06:00,
2013-05-10 05:11:00,60.6,59.2,29.92,SW,229,0.0,0.0,95,0.00,,,0.01,0.00,VWS V14.01,2013-05-10 10:11:00,
2013-05-10 05:16:00,60.3,58.9,29.92,SW,230,0.0,0.0,95,0.00,,,0.01,0.00,VWS V14.01,2013-05-10 10:16:00,
2013-05-10 05:21:00,60.1,59.0,29.92,SW,230,0.0,0.0,96,0.00,,,0.01,0.00,VWS V14.01,2013-05-10 10:21:00,
2013-05-10 05:26:00,60.0,58.9,29.92,SW,230,0.0,0.0,96,0.00,,,0.01,0.00,VWS V14.01,2013-05-10 10:26:00,
2013-05-10 05:31:00,59.8,58.7,29.92,SW,230,0.0,0.0,96,0.00,,,0.01,0.00,VWS V14.01,2013-05-10 10:31:00,
2013-05-10 05:36:00,59.7,58.6,29.92,WSW,243,0.0,0.0,96,0.00,,,0.01,0.00,VWS V14.01,2013-05-10 10:36:00,
2013-05-10 05:41:00,59.5,58.4,29.92,WSW,243,0.0,0.0,96,0.00,,,0.01,0.00,VWS V14.01,2013-05-10 10:41:00,
2013-05-10 05:46:00,59.5,58.4,29.91,WSW,243,0.0,0.0,96,0.00,,,0.01,0.00,VWS V14.01,2013-05-10 10:46:00,
2013-05-10 05:51:00,59.4,58.0,29.91,WSW,245,0.0,0.0,95,0.00,,,0.01,0.00,VWS V14.01,2013-05-10 10:51:00,
2013-05-10 05:56:00,59.2,58.1,29.91,WSW,246,0.0,0.0,96,0.00,,,0.01,0.00,VWS V14.01,2013-05-10 10:56:00,
2013-05-10 06:01:00,59.0,57.6,29.92,WSW,249,0.0,0.0,95,0.00,,,0.01,0.00,VWS V14.01,2013-05-10 11:01:00,
2013-05-10 06:06:00,58.9,57.5,29.92,WSW,252,0.0,0.0,95,0.00,,,0.01,0.00,VWS V14.01,2013-05-10 11:06:00,
2013-05-10 06:11:00,58.9,57.5,29.92,WSW,253,0.0,0.0,95,0.00,,,0.01,0.00,VWS V14.01,2013-05-10 11:11:00,
2013-05-10 06:16:00,58.7,57.3,29.92,WSW,253,0.0,0.0,95,0.00,,,0.01,0.00,VWS V14.01,2013-05-10 11:16:00,
2013-05-10 06:21:00,58.6,57.2,29.92,WSW,257,0.0,0.0,95,0.01,,,0.02,0.00,VWS V14.01,2013-05-10 11:21:00,
2013-05-10 06:26:00,58.4,57.0,29.92,WSW,257,0.0,0.0,95,0.01,,,0.02,5.75,VWS V14.01,2013-05-10 11:26:00,
2013-05-10 06:31:00,58.4,57.0,29.94,WSW,257,0.0,0.0,95,0.01,,,0.02,10.35,VWS V14.01,2013-05-10 11:31:00,
2013-05-10 06:36:00,58.3,56.9,29.94,WSW,257,0.0,0.0,95,0.01,,,0.02,13.80,VWS V14.01,2013-05-10 11:36:00,
2013-05-10 06:41:00,58.3,56.9,29.94,WSW,257,0.0,0.0,95,0.01,,,0.02,16.10,VWS V14.01,2013-05-10 11:41:00,
2013-05-10 06:46:00,58.1,56.7,29.95,WSW,257,0.0,0.0,95,0.01,,,0.02,24.15,VWS V14.01,2013-05-10 11:46:00,
2013-05-10 06:51:00,58.1,56.7,29.95,WSW,257,0.0,0.0,95,0.01,,,0.02,40.25,VWS V14.01,2013-05-10 11:51:00,
2013-05-10 06:56:00,58.0,56.6,29.95,WSW,257,0.0,0.0,95,0.01,,,0.02,46.00,VWS V14.01,2013-05-10 11:56:00,
2013-05-10 07:01:00,58.1,56.7,29.95,WSW,257,0.0,0.0,95,0.01,,,0.02,71.30,VWS V14.01,2013-05-10 12:01:00,
2013-05-10 07:06:00,58.1,56.7,29.95,WSW,257,0.0,0.0,95,0.01,,,0.02,72.45,VWS V14.01,2013-05-10 12:06:00,
2013-05-10 07:11:00,58.1,56.7,29.95,West,263,0.0,0.0,95,0.01,,,0.02,96.60,VWS V14.01,2013-05-10 12:11:00,
2013-05-10 07:16:00,58.3,56.9,29.95,West,264,0.0,0.0,95,0.01,,,0.02,117.30,VWS V14.01,2013-05-10 12:16:00,
2013-05-10 07:21:00,58.4,57.0,29.95,West,267,0.0,0.0,95,0.00,,,0.02,133.40,VWS V14.01,2013-05-10 12:21:00,
2013-05-10 07:26:00,58.4,57.0,29.95,West,267,0.0,0.0,95,0.00,,,0.02,154.10,VWS V14.01,2013-05-10 12:26:00,
2013-05-10 07:31:00,58.6,57.2,29.97,WNW,294,0.0,0.0,95,0.00,,,0.02,178.25,VWS V14.01,2013-05-10 12:31:00,
2013-05-10 07:36:00,58.9,57.2,29.97,WNW,295,0.0,0.0,94,0.00,,,0.02,192.05,VWS V14.01,2013-05-10 12:36:00,
2013-05-10 07:41:00,59.0,57.3,29.97,WNW,296,0.0,0.0,94,0.00,,,0.02,202.40,VWS V14.01,2013-05-10 12:41:00,
2013-05-10 07:46:00,59.2,57.2,29.98,WNW,303,0.0,0.0,93,0.00,,,0.02,205.85,VWS V14.01,2013-05-10 12:46:00,
2013-05-10 07:51:00,59.4,57.4,29.98,NW,321,1.0,1.0,93,0.00,,,0.02,157.55,VWS V14.01,2013-05-10 12:51:00,
2013-05-10 07:56:00,59.2,57.2,29.98,NNW,337,0.0,0.0,93,0.00,,,0.02,125.35,VWS V14.01,2013-05-10 12:56:00,
2013-05-10 08:01:00,59.2,57.2,29.99,NNW,339,0.0,0.0,93,0.00,,,0.02,129.95,VWS V14.01,2013-05-10 13:01:00,
2013-05-10 08:06:00,59.0,56.7,29.99,NNW,341,0.0,0.0,92,0.00,,,0.02,117.30,VWS V14.01,2013-05-10 13:06:00,
2013-05-10 08:11:00,58.9,56.6,29.99,NNW,339,0.0,0.0,92,0.00,,,0.02,135.70,VWS V14.01,2013-05-10 13:11:00,
2013-05-10 08:16:00,59.0,56.7,29.99,North,355,0.0,0.0,92,0.00,,,0.02,171.35,VWS V14.01,2013-05-10 13:16:00,
2013-05-10 08:21:00,59.2,56.9,29.99,North,355,0.0,0.0,92,0.00,,,0.02,280.60,VWS V14.01,2013-05-10 13:21:00,
2013-05-10 08:26:00,59.7,57.4,29.99,North,360,0.0,0.0,92,0.00,,,0.02,397.90,VWS V14.01,2013-05-10 13:26:00,
2013-05-10 08:31:00,60.1,57.5,29.99,North,5,3.0,3.0,91,0.00,,,0.02,355.35,VWS V14.01,2013-05-10 13:31:00,
2013-05-10 08:36:00,60.1,57.2,29.99,NNE,15,0.0,0.0,90,0.00,,,0.02,266.80,VWS V14.01,2013-05-10 13:36:00,
2013-05-10 08:41:00,60.1,57.2,29.99,NNE,18,0.0,0.0,90,0.00,,,0.02,266.80,VWS V14.01,2013-05-10 13:41:00,
2013-05-10 08:46:00,59.8,56.9,29.99,NNE,19,0.0,0.0,90,0.00,,,0.02,263.35,VWS V14.01,2013-05-10 13:46:00,
2013-05-10 08:51:00,60.0,57.1,29.99,NNE,19,0.0,0.0,90,0.00,,,0.02,312.80,VWS V14.01,2013-05-10 13:51:00,
2013-05-10 08:56:00,60.3,57.4,29.99,NNE,19,0.0,0.0,90,0.00,,,0.02,363.40,VWS V14.01,2013-05-10 13:56:00,
2013-05-10 09:01:00,60.6,57.7,29.99,NNE,19,0.0,0.0,90,0.00,,CLR,0.02,402.50,VWS V14.01,2013-05-10 14:01:00,
2013-05-10 09:06:00,60.5,57.2,29.99,NNE,20,1.0,5.0,89,0.00,,CLR,0.02,274.85,VWS V14.01,2013-05-10 14:06:00,
2013-05-10 09:11:00,60.3,57.0,29.99,NNE,17,0.0,0.0,89,0.00,,CLR,0.02,261.05,VWS V14.01,2013-05-10 14:11:00,
2013-05-10 09:16:00,60.3,57.0,30.00,NNE,17,0.0,0.0,89,0.00,,CLR,0.02,346.15,VWS V14.01,2013-05-10 14:16:00,
2013-05-10 09:21:00,60.5,57.2,30.00,NNE,17,0.0,0.0,89,0.00,,CLR,0.02,311.65,VWS V14.01,2013-05-10 14:21:00,
2013-05-10 09:26:00,60.8,57.2,30.00,NNE,15,0.0,0.0,88,0.00,,CLR,0.02,445.05,VWS V14.01,2013-05-10 14:26:00,
2013-05-10 09:31:00,60.6,56.7,30.00,NNW,338,0.0,0.0,87,0.00,,CLR,0.02,479.55,VWS V14.01,2013-05-10 14:31:00,
2013-05-10 09:36:00,60.9,57.0,30.00,North,355,1.0,4.0,87,0.00,,CLR,0.02,501.40,VWS V14.01,2013-05-10 14:36:00,
2013-05-10 09:41:00,61.4,57.5,30.00,North,360,0.0,0.0,87,0.00,,CLR,0.02,488.75,VWS V14.01,2013-05-10 14:41:00,
2013-05-10 09:46:00,61.2,56.7,30.02,North,5,0.0,0.0,85,0.00,,CLR,0.02,418.60,VWS V14.01,2013-05-10 14:46:00,
2013-05-10 09:51:00,61.7,57.5,30.02,North,9,2.0,2.0,86,0.00,,CLR,0.02,469.20,VWS V14.01,2013-05-10 14:51:00,
2013-05-10 09:56:00,62.0,57.5,30.02,WNW,302,0.0,0.0,85,0.00,,CLR,0.02,434.70,VWS V14.01,2013-05-10 14:56:00,
2013-05-10 10:01:00,61.9,57.3,30.03,NW,323,0.0,0.0,85,0.00,,CLR,0.02,479.55,VWS V14.01,2013-05-10 15:01:00,
2013-05-10 10:06:00,61.9,57.3,30.03,NNW,333,0.0,0.0,85,0.00,,CLR,0.02,527.85,VWS V14.01,2013-05-10 15:06:00,
2013-05-10 10:11:00,62.2,57.6,30.03,NNW,340,4.0,4.0,85,0.00,,CLR,0.02,530.15,VWS V14.01,2013-05-10 15:11:00,
2013-05-10 10:16:00,62.4,57.2,30.03,NW,311,0.0,0.0,83,0.00,,CLR,0.02,576.15,VWS V14.01,2013-05-10 15:16:00,
2013-05-10 10:21:00,62.7,57.5,30.03,NW,312,0.0,0.0,83,0.00,,CLR,0.02,719.90,VWS V14.01,2013-05-10 15:21:00,
2013-05-10 10:26:00,63.5,58.6,30.03,WNW,286,0.0,0.0,84,0.00,,CLR,0.02,677.35,VWS V14.01,2013-05-10 15:26:00,
2013-05-10 10:31:00,64.1,58.5,30.02,NW,319,3.0,3.0,82,0.00,,CLR,0.02,719.90,VWS V14.01,2013-05-10 15:31:00,
2013-05-10 10:36:00,64.3,58.3,30.02,NNW,342,0.0,0.0,81,0.00,,CLR,0.02,798.10,VWS V14.01,2013-05-10 15:36:00,
2013-05-10 10:40:00,64.3,58.0,30.02,NNW,341,0.0,0.0,80,0.00,,CLR,0.02,856.75,VWS V14.01,2013-05-10 15:40:00,
2013-05-10 10:46:00,64.9,58.2,30.02,NNE,29,0.0,0.0,79,0.01,,CLR,0.03,830.30,VWS V14.01,2013-05-10 15:46:00,
2013-05-10 10:50:00,65.6,58.2,30.02,NNE,21,0.0,0.0,77,0.01,,CLR,0.03,853.30,VWS V14.01,2013-05-10 15:50:00,
2013-05-10 10:55:00,65.6,57.8,30.02,North,355,0.0,0.0,76,0.01,,CLR,0.03,915.40,VWS V14.01,2013-05-10 15:55:00,
2013-05-10 11:00:00,65.3,57.9,30.01,WNW,290,3.0,5.0,77,0.01,,CLR,0.03,931.50,VWS V14.01,2013-05-10 16:00:00,
2013-05-10 11:05:00,65.9,58.5,30.01,NE,38,4.0,4.0,77,0.01,,CLR,0.03,899.30,VWS V14.01,2013-05-10 16:05:00,
2013-05-10 11:10:00,66.1,58.0,30.01,NNE,28,6.0,6.0,75,0.01,,CLR,0.03,986.70,VWS V14.01,2013-05-10 16:10:00,
2013-05-10 11:15:00,65.9,57.8,30.01,NNW,331,3.0,3.0,75,0.01,,CLR,0.03,1026.95,VWS V14.01,2013-05-10 16:15:00,
2013-05-10 11:20:00,65.9,58.1,30.01,North,11,3.0,3.0,76,0.01,,CLR,0.03,955.65,VWS V14.01,2013-05-10 16:20:00,
2013-05-10 11:25:00,66.3,58.5,30.01,NNE,24,0.0,0.0,76,0.01,,CLR,0.03,952.20,VWS V14.01,2013-05-10 16:25:00,
2013-05-10 11:30:00,66.8,57.9,30.01,NNE,23,0.0,0.0,73,0.01,,BKN013,0.03,954.50,VWS V14.01,2013-05-10 16:30:00,
2013-05-10 11:35:00,66.8,58.6,30.01,NNE,32,0.0,4.0,75,0.01,,BKN013,0.03,1040.75,VWS V14.01,2013-05-10 16:35:00,
2013-05-10 11:40:00,67.1,58.5,30.01,NNE,22,0.0,0.0,74,0.01,,BKN013,0.03,450.80,VWS V14.01,2013-05-10 16:40:00,
2013-05-10 11:45:00,66.4,57.9,30.01,NNE,22,0.0,0.0,74,0.00,,BKN013,0.03,428.95,VWS V14.01,2013-05-10 16:45:00,
2013-05-10 11:50:00,66.3,57.8,30.01,NE,37,4.0,4.0,74,0.00,,BKN013,0.03,984.40,VWS V14.01,2013-05-10 16:50:00,
2013-05-10 11:55:00,67.3,58.0,30.01,NNE,22,0.0,15.0,72,0.00,,BKN013,0.03,911.95,VWS V14.01,2013-05-10 16:55:00,
2013-05-10 12:00:00,67.8,57.7,30.00,NNE,21,0.0,0.0,70,0.00,,BKN013,0.03,1022.35,VWS V14.01,2013-05-10 17:00:00,
2013-05-10 12:05:00,67.4,57.3,30.00,North,11,0.0,0.0,70,0.00,,BKN013,0.03,309.35,VWS V14.01,2013-05-10 17:05:00,
2013-05-10 12:10:00,66.9,58.7,30.00,North,355,0.0,0.0,75,0.00,,BKN013,0.03,309.35,VWS V14.01,2013-05-10 17:10:00,
2013-05-10 12:15:00,66.8,58.3,30.00,NW,322,0.0,0.0,74,0.00,,BKN013,0.03,240.35,VWS V14.01,2013-05-10 17:15:00,
2013-05-10 12:20:00,66.9,58.3,30.00,NNE,26,0.0,0.0,74,0.00,,BKN013,0.03,319.70,VWS V14.01,2013-05-10 17:20:00,
2013-05-10 12:25:00,67.9,58.5,30.00,North,5,0.0,0.0,72,0.00,,BKN013,0.03,1255.80,VWS V14.01,2013-05-10 17:25:00,
2013-05-10 12:30:00,68.4,58.2,30.00,NNE,28,0.0,10.0,70,0.00,,BKN015,0.03,1255.80,VWS V14.01,2013-05-10 17:30:00,
2013-05-10 12:35:00,67.8,58.5,30.00,NNE,18,0.0,0.0,72,0.00,,BKN015,0.03,304.75,VWS V14.01,2013-05-10 17:35:00,
2013-05-10 12:40:00,68.4,57.4,30.00,NNE,24,0.0,0.0,68,0.00,,BKN015,0.03,1133.90,VWS V14.01,2013-05-10 17:40:00,
2013-05-10 12:45:00,69.4,58.8,29.99,NE,36,9.0,11.0,69,0.00,,BKN015,0.03,1114.35,VWS V14.01,2013-05-10 17:45:00,
2013-05-10 12:50:00,70.0,59.0,29.99,NNE,24,0.0,11.0,68,0.00,,BKN015,0.03,1245.45,VWS V14.01,2013-05-10 17:50:00,
2013-05-10 12:55:00,69.4,57.1,29.99,NNE,12,0.0,12.0,65,0.00,,BKN015,0.03,509.45,VWS V14.01,2013-05-10 17:55:00,
2013-05-10 13:00:00,68.6,57.2,30.00,NE,35,0.0,7.0,67,0.00,,BKN015,0.03,204.70,VWS V14.01,2013-05-10 18:00:00,
2013-05-10 13:05:00,68.3,56.9,30.00,NNE,30,0.0,7.0,67,0.00,,BKN015,0.03,309.35,VWS V14.01,2013-05-10 18:05:00,
2013-05-10 13:10:00,69.3,57.5,30.00,NNE,26,2.0,7.0,66,0.00,,BKN015,0.03,1197.15,VWS V14.01,2013-05-10 18:10:00,
2013-05-10 13:15:00,69.4,57.1,30.00,NNE,12,0.0,10.0,65,0.00,,BKN015,0.03,1178.75,VWS V14.01,2013-05-10 18:15:00,
2013-05-10 13:20:00,70.5,58.6,30.00,NE,38,0.0,4.0,66,0.00,,BKN015,0.03,1154.60,VWS V14.01,2013-05-10 18:20:00,
2013-05-10 13:25:00,70.6,57.8,30.00,NNE,24,0.0,10.0,64,0.00,,BKN015,0.03,341.55,VWS V14.01,2013-05-10 18:25:00,
2013-05-10 13:30:00,70.0,56.8,30.00,NE,34,2.0,7.0,63,0.00,,BKN035,0.03,614.10,VWS V14.01,2013-05-10 18:30:00,
2013-05-10 13:35:00,70.8,57.6,30.00,NNE,30,4.0,10.0,63,0.00,,BKN035,0.03,1235.10,VWS V14.01,2013-05-10 18:35:00,
2013-05-10 13:40:00,69.6,57.3,30.00,NE,42,10.0,11.0,65,0.00,,BKN035,0.03,288.65,VWS V14.01,2013-05-10 18:40:00,
2013-05-10 13:45:00,68.8,57.0,30.00,NE,38,2.0,10.0,66,0.00,,BKN035,0.03,280.60,VWS V14.01,2013-05-10 18:45:00,
2013-05-10 13:50:00,68.9,56.7,30.00,NE,38,4.0,14.0,65,0.00,,BKN035,0.03,189.75,VWS V14.01,2013-05-10 18:50:00,
2013-05-10 13:55:00,68.4,56.2,30.00,NE,38,0.0,10.0,65,0.00,,BKN035,0.03,232.30,VWS V14.01,2013-05-10 18:55:00,
2013-05-10 14:00:00,68.3,56.5,30.00,NE,36,0.0,10.0,66,0.00,,BKN035,0.03,327.75,VWS V14.01,2013-05-10 19:00:00,
2013-05-10 14:05:00,68.9,57.5,30.00,NNE,19,9.0,11.0,67,0.00,,BKN035,0.03,338.10,VWS V14.01,2013-05-10 19:05:00,
2013-05-10 14:10:00,68.8,56.6,30.00,NNE,28,0.0,9.0,65,0.00,,BKN035,0.03,416.30,VWS V14.01,2013-05-10 19:10:00,
2013-05-10 14:15:00,68.6,56.0,30.00,NNE,27,4.0,10.0,64,0.00,,BKN035,0.03,303.60,VWS V14.01,2013-05-10 19:15:00,
2013-05-10 14:20:00,68.6,56.4,30.00,NNE,28,0.0,14.0,65,0.00,,BKN035,0.03,400.20,VWS V14.01,2013-05-10 19:20:00,
2013-05-10 14:25:00,68.9,57.1,30.00,NNE,26,0.0,6.0,66,0.00,,BKN035,0.03,515.20,VWS V14.01,2013-05-10 19:25:00,
2013-05-10 14:30:00,69.1,57.7,30.00,NNE,24,0.0,10.0,67,0.00,,BKN040,0.03,432.40,VWS V14.01,2013-05-10 19:30:00,
2013-05-10 14:35:00,68.9,57.1,30.00,NNE,19,0.0,9.0,66,0.00,,BKN040,0.03,363.40,VWS V14.01,2013-05-10 19:35:00,
2013-05-10 14:40:00,69.1,57.7,30.00,NNE,29,2.0,7.0,67,0.00,,BKN040,0.03,346.15,VWS V14.01,2013-05-10 19:40:00,
2013-05-10 14:45:00,68.6,56.8,30.00,NNE,26,0.0,5.0,66,0.00,,BKN040,0.03,469.20,VWS V14.01,2013-05-10 19:45:00,
2013-05-10 14:50:00,68.8,56.1,30.00,NNW,338,0.0,4.0,64,0.00,,BKN040,0.03,384.10,VWS V14.01,2013-05-10 19:50:00,
2013-05-10 14:55:00,68.8,56.6,30.00,NNE,32,0.0,11.0,65,0.00,,BKN040,0.03,327.75,VWS V14.01,2013-05-10 19:55:00,
2013-05-10 15:00:00,68.8,56.6,30.00,NE,37,0.0,9.0,65,0.00,,BKN040,0.03,277.15,VWS V14.01,2013-05-10 20:00:00,
2013-05-10 15:05:00,68.8,56.1,30.00,NNE,30,0.0,11.0,64,0.00,,BKN040,0.03,394.45,VWS V14.01,2013-05-10 20:05:00,
2013-05-10 15:10:00,69.1,55.1,30.00,NNE,24,0.0,7.0,61,0.00,,BKN040,0.03,485.30,VWS V14.01,2013-05-10 20:10:00,
2013-05-10 15:15:00,69.1,55.5,30.00,NNE,32,0.0,3.0,62,0.00,,BKN040,0.03,365.70,VWS V14.01,2013-05-10 20:15:00,
2013-05-10 15:20:00,69.1,55.5,30.00,NNE,22,4.0,9.0,62,0.00,,BKN040,0.03,327.75,VWS V14.01,2013-05-10 20:20:00,
2013-05-10 15:25:00,69.1,54.2,30.00,NNE,26,0.0,3.0,59,0.00,,BKN040,0.03,388.70,VWS V14.01,2013-05-10 20:25:00,
2013-05-10 15:30:00,69.6,54.2,30.00,NNE,28,0.0,6.0,58,0.00,,BKN040,0.03,525.55,VWS V14.01,2013-05-10 20:30:00,
2013-05-10 15:35:00,70.0,54.1,30.00,NNE,30,6.0,9.0,57,0.00,,BKN040,0.03,458.85,VWS V14.01,2013-05-10 20:35:00,
2013-05-10 15:40:00,69.8,54.8,30.00,NNE,25,1.0,10.0,59,0.00,,BKN040,0.03,315.10,VWS V14.01,2013-05-10 20:40:00,
2013-05-10 15:45:00,69.6,55.1,30.00,NE,35,5.0,9.0,60,0.00,,BKN040,0.03,319.70,VWS V14.01,2013-05-10 20:45:00,
2013-05-10 15:50:00,69.4,55.4,30.00,NNE,27,0.0,7.0,61,0.00,,BKN040,0.03,376.05,VWS V14.01,2013-05-10 20:50:00,
2013-05-10 15:55:00,69.4,54.9,30.00,NNE,29,0.0,3.0,60,0.00,,BKN040,0.03,568.10,VWS V14.01,2013-05-10 20:55:00,
2013-05-10 16:00:00,70.1,55.6,29.99,NNE,26,0.0,12.0,60,0.00,,BKN040,0.03,400.20,VWS V14.01,2013-05-10 21:00:00,
2013-05-10 16:05:00,71.2,56.2,29.99,NNE,18,5.0,10.0,59,0.00,,BKN040,0.03,966.00,VWS V14.01,2013-05-10 21:05:00,
2013-05-10 16:10:00,71.3,55.8,29.99,NNE,29,6.0,9.0,58,0.00,,BKN040,0.03,872.85,VWS V14.01,2013-05-10 21:10:00,
2013-05-10 16:15:00,71.2,55.2,29.99,NNE,22,3.0,11.0,57,0.00,,BKN040,0.03,186.30,VWS V14.01,2013-05-10 21:15:00,
2013-05-10 16:20:00,70.3,54.4,29.99,NNE,22,0.0,11.0,57,0.00,,BKN040,0.03,464.60,VWS V14.01,2013-05-10 21:20:00,
2013-05-10 16:25:00,70.6,54.6,29.99,NNW,344,0.0,4.0,57,0.00,,BKN040,0.03,224.25,VWS V14.01,2013-05-10 21:25:00,
2013-05-10 16:30:00,70.3,55.8,29.98,NW,321,0.0,2.0,60,0.00,,BKN040,0.03,240.35,VWS V14.01,2013-05-10 21:30:00,
2013-05-10 16:35:00,70.1,55.1,29.98,NE,34,0.0,10.0,59,0.00,,BKN040,0.03,299.00,VWS V14.01,2013-05-10 21:35:00,
2013-05-10 16:40:00,70.0,55.0,29.98,NNE,17,0.0,7.0,59,0.01,,BKN040,0.04,727.95,VWS V14.01,2013-05-10 21:40:00,
2013-05-10 16:45:00,70.0,55.5,29.98,NNE,30,2.0,7.0,60,0.01,,BKN040,0.04,258.75,VWS V14.01,2013-05-10 21:45:00,
2013-05-10 16:50:00,70.0,56.0,29.98,NNE,33,0.0,6.0,61,0.01,,BKN040,0.04,472.65,VWS V14.01,2013-05-10 21:50:00,
2013-05-10 16:55:00,70.0,56.0,29.98,North,355,0.0,5.0,61,0.01,,BKN040,0.04,213.90,VWS V14.01,2013-05-10 21:55:00,
2013-05-10 16:58:00,69.8,56.2,29.98,NNW,340,0.0,3.0,62,0.01,,BKN040,0.04,224.25,VWS V14.01,2013-05-10 21:58:00,
2013-05-10 17:03:00,69.3,55.7,29.98,NNE,13,0.0,5.0,62,0.01,,BKN040,0.04,210.45,VWS V14.01,2013-05-10 22:03:00,
2013-05-10 17:08:00,69.3,55.7,29.98,NNE,17,0.0,0.0,62,0.01,,BKN040,0.04,181.70,VWS V14.01,2013-05-10 22:08:00,
2013-05-10 17:13:00,69.3,55.7,29.98,NNE,13,0.0,0.0,62,0.01,,BKN040,0.04,192.05,VWS V14.01,2013-05-10 22:13:00,
2013-05-10 17:18:00,69.4,55.4,29.98,NNE,26,5.0,9.0,61,0.01,,BKN040,0.04,339.25,VWS V14.01,2013-05-10 22:18:00,
2013-05-10 17:23:00,70.0,56.4,29.98,NNE,19,0.0,5.0,62,0.01,,BKN040,0.04,368.00,VWS V14.01,2013-05-10 22:23:00,
2013-05-10 17:28:00,69.8,54.8,29.98,NNE,27,0.0,7.0,59,0.01,,BKN040,0.04,293.25,VWS V14.01,2013-05-10 22:28:00,
2013-05-10 17:33:00,69.6,55.1,29.99,NNE,25,0.0,5.0,60,0.01,,OVC075,0.04,216.20,VWS V14.01,2013-05-10 22:33:00,
2013-05-10 17:38:00,69.3,54.8,29.99,NNE,31,0.0,3.0,60,0.01,,OVC075,0.04,181.70,VWS V14.01,2013-05-10 22:38:00,
2013-05-10 17:43:00,69.1,54.7,29.99,NNE,26,3.0,7.0,60,0.00,,OVC075,0.04,277.15,VWS V14.01,2013-05-10 22:43:00,
2013-05-10 17:48:00,69.1,54.2,29.99,NNE,18,0.0,11.0,59,0.00,,OVC075,0.04,178.25,VWS V14.01,2013-05-10 22:48:00,
2013-05-10 17:53:00,68.8,53.9,29.99,NNE,25,0.0,10.0,59,0.00,,OVC075,0.04,141.45,VWS V14.01,2013-05-10 22:53:00,
2013-05-10 17:58:00,68.6,54.2,29.99,NNE,17,0.0,11.0,60,0.00,,OVC075,0.04,147.20,VWS V14.01,2013-05-10 22:58:00,
2013-05-10 18:03:00,68.6,54.6,29.99,NNE,23,0.0,9.0,61,0.00,,OVC075,0.04,143.75,VWS V14.01,2013-05-10 23:03:00,
2013-05-10 18:08:00,68.8,54.8,29.99,NNE,15,1.0,11.0,61,0.00,,OVC075,0.04,371.45,VWS V14.01,2013-05-10 23:08:00,
2013-05-10 18:13:00,68.9,55.4,29.99,NE,34,1.0,10.0,62,0.00,,OVC075,0.04,62.10,VWS V14.01,2013-05-10 23:13:00,
2013-05-10 18:18:00,68.6,55.1,29.98,NNE,23,6.0,13.0,62,0.00,,OVC075,0.04,87.40,VWS V14.01,2013-05-10 23:18:00,
2013-05-10 18:23:00,68.4,55.3,29.98,NE,46,4.0,11.0,63,0.00,,OVC075,0.04,79.35,VWS V14.01,2013-05-10 23:23:00,
2013-05-10 18:28:00,68.1,55.0,29.98,NE,34,0.0,5.0,63,0.00,,OVC075,0.04,133.40,VWS V14.01,2013-05-10 23:28:00,
2013-05-10 18:33:00,68.1,55.0,29.99,NNE,32,0.0,0.0,63,0.00,,OVC070,0.04,104.65,VWS V14.01,2013-05-10 23:33:00,
2013-05-10 18:38:00,68.1,54.6,29.99,NNE,30,2.0,6.0,62,0.00,,OVC070,0.04,106.95,VWS V14.01,2013-05-10 23:38:00,
2013-05-10 18:43:00,68.3,54.8,29.99,NNE,19,0.0,7.0,62,0.00,,OVC070,0.04,103.50,VWS V14.01,2013-05-10 23:43:00,
2013-05-10 18:48:00,68.1,54.6,29.99,NNE,23,2.0,11.0,62,0.00,,OVC070,0.04,71.30,VWS V14.01,2013-05-10 23:48:00,
2013-05-10 18:53:00,67.8,54.3,29.99,NE,38,0.0,9.0,62,0.00,,OVC070,0.04,96.60,VWS V14.01,2013-05-10 23:53:00,
2013-05-10 18:58:00,67.6,54.6,29.99,NNE,32,0.0,0.0,63,0.00,,OVC070,0.04,85.10,VWS V14.01,2013-05-10 23:58:00,
2013-05-10 19:03:00,67.4,53.9,29.99,NNE,24,0.0,6.0,62,0.00,,OVC070,0.04,52.90,VWS V14.01,2013-05-11 00:03:00,
2013-05-10 19:08:00,67.3,53.8,29.99,NNE,31,0.0,5.0,62,0.00,,OVC070,0.04,54.05,VWS V14.01,2013-05-11 00:08:00,
2013-05-10 19:13:00,67.1,54.1,29.99,ENE,57,0.0,9.0,63,0.00,,OVC070,0.04,37.95,VWS V14.01,2013-05-11 00:13:00,
2013-05-10 19:18:00,66.9,53.9,30.00,NNE,24,0.0,7.0,63,0.00,,OVC070,0.04,66.70,VWS V14.01,2013-05-11 00:18:00,
2013-05-10 19:23:00,66.8,53.8,30.00,NNE,24,0.0,11.0,63,0.00,,OVC070,0.04,60.95,VWS V14.01,2013-05-11 00:23:00,
2013-05-10 19:28:00,66.6,53.6,30.00,NNE,21,0.0,11.0,63,0.00,,OVC070,0.04,36.80,VWS V14.01,2013-05-11 00:28:00,
2013-05-10 19:33:00,66.3,53.8,30.00,NNE,17,2.0,6.0,64,0.00,,BKN065,0.04,32.20,VWS V14.01,2013-05-11 00:33:00,
2013-05-10 19:38:00,65.8,53.3,30.00,NNE,18,0.0,11.0,64,0.00,,BKN065,0.04,29.90,VWS V14.01,2013-05-11 00:38:00,
2013-05-10 19:43:00,65.4,52.5,30.00,NNE,29,0.0,7.0,63,0.00,,BKN065,0.04,26.45,VWS V14.01,2013-05-11 00:43:00,
2013-05-10 19:48:00,65.3,52.8,30.01,NNE,22,9.0,11.0,64,0.00,,BKN065,0.04,20.70,VWS V14.01,2013-05-11 00:48:00,
2013-05-10 19:53:00,64.9,52.5,30.01,NE,34,6.0,14.0,64,0.00,,BKN065,0.04,18.40,VWS V14.01,2013-05-11 00:53:00,
2013-05-10 19:58:00,64.6,52.6,30.01,NNE,21,5.0,10.0,65,0.00,,BKN065,0.04,13.80,VWS V14.01,2013-05-11 00:58:00,
2013-05-10 20:03:00,64.3,52.7,30.02,NNE,26,0.0,9.0,66,0.00,,BKN065,0.04,10.35,VWS V14.01,2013-05-11 01:03:00,
2013-05-10 20:08:00,64.0,52.8,30.02,NNE,30,0.0,0.0,67,0.00,,BKN065,0.04,8.05,VWS V14.01,2013-05-11 01:08:00,
2013-05-10 20:13:00,63.7,52.5,30.02,NE,40,0.0,9.0,67,0.00,,BKN065,0.04,5.75,VWS V14.01,2013-05-11 01:13:00,
2013-05-10 20:18:00,63.3,52.2,30.03,NNE,16,9.0,10.0,67,0.00,,BKN065,0.04,0.00,VWS V14.01,2013-05-11 01:18:00,
2013-05-10 20:23:00,63.2,52.1,30.03,NNE,29,0.0,0.0,67,0.00,,BKN065,0.04,0.00,VWS V14.01,2013-05-11 01:23:00,
2013-05-10 20:28:00,63.0,51.9,30.03,NNE,27,2.0,5.0,67,0.00,,BKN065,0.04,0.00,VWS V14.01,2013-05-11 01:28:00,
2013-05-10 20:33:00,62.7,51.6,30.03,NNE,24,2.0,7.0,67,0.00,,BKN065,0.04,0.00,VWS V14.01,2013-05-11 01:33:00,
2013-05-10 20:38:00,62.5,51.4,30.03,NNE,21,0.0,0.0,67,0.00,,BKN065,0.04,0.00,VWS V14.01,2013-05-11 01:38:00,
2013-05-10 20:43:00,62.4,51.7,30.03,NNE,21,0.0,0.0,68,0.00,,BKN065,0.04,0.00,VWS V14.01,2013-05-11 01:43:00,
2013-05-10 20:48:00,62.2,51.5,30.03,NNE,21,0.0,0.0,68,0.00,,BKN065,0.04,0.00,VWS V14.01,2013-05-11 01:48:00,
2013-05-10 20:53:00,62.0,51.3,30.03,NNE,21,0.0,0.0,68,0.00,,BKN065,0.04,0.00,VWS V14.01,2013-05-11 01:53:00,
2013-05-10 20:58:00,61.9,51.6,30.03,NNE,21,0.0,0.0,69,0.00,,BKN065,0.04,0.00,VWS V14.01,2013-05-11 01:58:00,
2013-05-10 21:03:00,61.6,51.3,30.03,NNE,21,0.0,0.0,69,0.00,,BKN065,0.04,0.00,VWS V14.01,2013-05-11 02:03:00,
2013-05-10 21:08:00,61.4,51.2,30.03,NNE,21,0.0,0.0,69,0.00,,BKN065,0.04,0.00,VWS V14.01,2013-05-11 02:08:00,
2013-05-10 21:13:00,61.2,51.3,30.03,NNE,21,0.0,0.0,70,0.00,,BKN065,0.04,0.00,VWS V14.01,2013-05-11 02:13:00,
2013-05-10 21:18:00,61.1,51.2,30.03,NNE,21,0.0,0.0,70,0.00,,BKN065,0.04,0.00,VWS V14.01,2013-05-11 02:18:00,
2013-05-10 21:23:00,60.9,51.5,30.03,NNE,21,0.0,0.0,71,0.00,,BKN065,0.04,0.00,VWS V14.01,2013-05-11 02:23:00,
2013-05-10 21:28:00,60.8,51.3,30.03,NNE,21,0.0,0.0,71,0.00,,BKN065,0.04,0.00,VWS V14.01,2013-05-11 02:28:00,
2013-05-10 21:33:00,60.6,51.2,30.04,NNE,21,0.0,0.0,71,0.00,,BKN065,0.04,0.00,VWS V14.01,2013-05-11 02:33:00,
2013-05-10 21:38:00,60.5,51.4,30.04,NNE,21,0.0,0.0,72,0.00,,BKN065,0.04,0.00,VWS V14.01,2013-05-11 02:38:00,
2013-05-10 21:43:00,60.3,51.2,30.04,NNE,21,0.0,0.0,72,0.00,,BKN065,0.04,0.00,VWS V14.01,2013-05-11 02:43:00,
2013-05-10 21:48:00,60.3,51.2,30.05,NNE,21,0.0,0.0,72,0.00,,BKN065,0.04,0.00,VWS V14.01,2013-05-11 02:48:00,
2013-05-10 21:53:00,60.1,51.1,30.05,NNE,21,0.0,0.0,72,0.00,,BKN065,0.04,0.00,VWS V14.01,2013-05-11 02:53:00,
2013-05-10 21:58:00,60.0,51.3,30.05,NNE,21,0.0,0.0,73,0.00,,BKN065,0.04,0.00,VWS V14.01,2013-05-11 02:58:00,
2013-05-10 22:03:00,59.8,51.1,30.05,NNE,21,0.0,0.0,73,0.00,,BKN065,0.04,0.00,VWS V14.01,2013-05-11 03:03:00,
2013-05-10 22:08:00,59.7,51.0,30.05,NNE,21,0.0,0.0,73,0.00,,BKN065,0.04,0.00,VWS V14.01,2013-05-11 03:08:00,
2013-05-10 22:13:00,59.5,50.8,30.05,NNE,21,0.0,0.0,73,0.00,,BKN065,0.04,0.00,VWS V14.01,2013-05-11 03:13:00,
2013-05-10 22:18:00,59.4,50.8,30.07,NNE,21,0.0,0.0,73,0.00,,BKN065,0.04,0.00,VWS V14.01,2013-05-11 03:18:00,
2013-05-10 22:23:00,59.2,50.6,30.07,NNE,21,0.0,0.0,73,0.00,,BKN065,0.04,0.00,VWS V14.01,2013-05-11 03:23:00,
2013-05-10 22:28:00,59.0,50.4,30.07,NNE,21,0.0,0.0,73,0.00,,BKN065,0.04,0.00,VWS V14.01,2013-05-11 03:28:00,
2013-05-10 22:33:00,58.9,50.6,30.07,NNE,21,0.0,0.0,74,0.00,,CLR,0.04,0.00,VWS V14.01,2013-05-11 03:33:00,
2013-05-10 22:38:00,58.7,50.5,30.07,NNE,21,0.0,0.0,74,0.00,,CLR,0.04,0.00,VWS V14.01,2013-05-11 03:38:00,
2013-05-10 22:43:00,58.4,50.2,30.07,NNE,21,0.0,0.0,74,0.00,,CLR,0.04,0.00,VWS V14.01,2013-05-11 03:43:00,
2013-05-10 22:48:00,58.3,50.1,30.07,NNE,21,0.0,0.0,74,0.00,,CLR,0.04,0.00,VWS V14.01,2013-05-11 03:48:00,
2013-05-10 22:53:00,58.1,50.6,30.07,NNE,21,0.0,0.0,76,0.00,,CLR,0.04,0.00,VWS V14.01,2013-05-11 03:53:00,
2013-05-10 22:58:00,58.0,50.8,30.07,NNE,21,0.0,0.0,77,0.01,,CLR,0.05,0.00,VWS V14.01,2013-05-11 03:58:00,
2013-05-10 23:01:00,57.8,50.7,30.07,NNE,21,0.0,0.0,77,0.01,,CLR,0.05,0.00,VWS V14.01,2013-05-11 04:01:00,
2013-05-10 23:06:00,57.7,50.9,30.07,NNE,21,0.0,0.0,78,0.01,,CLR,0.05,0.00,VWS V14.01,2013-05-11 04:06:00,
2013-05-10 23:11:00,57.5,50.7,30.07,NNE,21,0.0,0.0,78,0.01,,CLR,0.05,0.00,VWS V14.01,2013-05-11 04:11:00,
2013-05-10 23:16:00,57.4,51.0,30.07,NNE,21,0.0,0.0,79,0.01,,CLR,0.05,0.00,VWS V14.01,2013-05-11 04:16:00,
2013-05-10 23:21:00,57.4,51.0,30.07,NNE,21,0.0,0.0,79,0.01,,CLR,0.05,0.00,VWS V14.01,2013-05-11 04:21:00,
2013-05-10 23:26:00,57.2,50.8,30.07,NNE,21,0.0,0.0,79,0.01,,CLR,0.05,0.00,VWS V14.01,2013-05-11 04:26:00,
2013-05-10 23:31:00,57.1,50.7,30.07,NNE,21,0.0,0.0,79,0.01,,CLR,0.05,0.00,VWS V14.01,2013-05-11 04:31:00,
2013-05-10 23:36:00,57.1,51.0,30.07,NNE,21,0.0,0.0,80,0.01,,CLR,0.05,0.00,VWS V14.01,2013-05-11 04:36:00,
2013-05-10 23:41:00,56.9,50.8,30.07,NNE,21,0.0,0.0,80,0.01,,CLR,0.05,0.00,VWS V14.01,2013-05-11 04:41:00,
2013-05-10 23:46:00,56.8,51.0,30.08,NNE,21,0.0,0.0,81,0.01,,CLR,0.05,0.00,VWS V14.01,2013-05-11 04:46:00,
2013-05-10 23:51:00,56.8,51.0,30.08,NNE,21,0.0,0.0,81,0.01,,CLR,0.05,0.00,VWS V14.01,2013-05-11 04:51:00,
2013-05-10 23:56:00,56.6,50.8,30.08,NNE,21,0.0,0.0,81,0.00,,CLR,0.05,0.00,VWS V14.01,2013-05-11 04:56:00,